Temp
25 25 24 24 23 23 24 28 27 28 26 28 27 26 24 23 23 21 21 22 20 19 20 20 20 20 20 20 20 20 20 19 19 19 19 19 19 19 19 19 19 19 19 19 19 19 19 18 18
25 25 24 23 23 23 25 28 27 28 28 28 27 26 24 23 24 23 21 20 21 20 20 20 20 20 20 20 20 20 19 19 19 19 19 19 19 19 19 19 18 18 18 18 18 18 18 18 18
25 25 22 23 23 23 25 27 27 29 29 27 26 26 25 23 24 24 22 20 21 20 20 19 20 20 20 20 19 19 19 19 19 19 19 18 18 18 18 18 18 18 18 18 18 18 18 18 18
24 24 23 23 24 27 27 27 28 28 29 27 26 23 24 25 25 24 22 21 21 20 20 19 20 20 20 20 20 20 19 19 19 19 18 18 18 18 18 18 18 18 18 18 18 18 18 18 18
24 22 23 24 27 29 28 28 28 28 27 26 26 23 22 24 25 24 21 23 21 19 20 20 20 20 20 20 20 20 20 19 20 19 19 19 19 18 18 18 18 18 18 17 17 17 17 17 17
22 23 23 24 27 28 28 28 29 28 28 26 25 24 22 25 25 24 23 22 22 20 20 20 20 20 20 20 20 19 19 19 19 19 19 19 19 18 18 18 17 17 17 17 17 17 17 17 17
23 22 22 24 26 27 28 29 27 27 26 26 25 22 22 24 25 24 23 23 22 21 21 21 20 21 20 20 20 19 19 19 19 19 19 19 18 18 18 18 19 18 18 18 18 18 18 18 17
23 24 24 25 26 26 29 28 26 27 27 27 25 23 21 23 25 24 23 23 23 22 22 21 21 21 20 21 20 20 19 19 19 19 19 18 18 18 19 19 18 18 18 18 18 18 18 18 17
26 23 24 26 26 26 29 26 27 26 26 26 26 24 23 25 25 25 24 23 22 22 21 22 21 21 20 20 20 20 19 19 19 19 19 18 18 18 19 19 18 18 18 17 17 17 17 17 17
24 23 26 27 25 26 27 26 27 26 25 24 23 24 25 25 25 25 24 24 23 22 21 22 21 21 21 21 21 20 20 20 19 19 19 19 19 19 19 18 18 18 18 17 17 18 18 17 17
27 25 27 26 26 27 25 26 27 25 24 24 23 23 23 24 24 24 24 24 24 24 23 22 22 22 21 21 21 21 20 20 20 19 19 19 19 19 18 18 18 18 18 18 18 18 18 18 17
27 26 27 27 26 27 27 27 28 24 25 25 24 24 23 22 23 24 24 24 24 24 23 22 22 21 21 22 21 20 20 20 19 19 19 19 19 19 19 18 18 18 18 18 18 18 18 17 17
26 27 27 28 26 27 28 28 28 26 26 26 25 25 24 23 24 26 26 25 25 23 23 22 23 22 22 21 21 21 21 21 20 20 19 19 19 18 18 18 18 18 18 18 18 18 18 18 18
27 27 26 27 27 29 28 28 28 25 26 25 26 24 23 24 25 26 27 26 25 24 23 22 23 22 22 21 21 21 21 21 20 20 20 19 18 18 18 18 18 18 18 18 18 17 17 17 17
27 26 26 26 26 27 27 26 26 25 26 26 26 25 24 25 26 26 27 27 26 25 24 23 23 22 22 21 21 21 20 21 20 20 20 19 18 18 17 17 17 17 17 17 17 17 17 17 17
28 25 24 26 26 26 26 23 25 25 27 26 25 25 24 24 25 27 27 27 27 25 25 23 22 21 20 21 21 21 20 20 20 20 20 19 18 18 17 17 17 17 17 17 17 17 16 16 17
26 23 25 26 27 27 26 25 25 25 27 27 26 24 25 23 23 24 25 24 24 24 23 22 22 20 20 18 20 21 21 20 20 20 19 18 17 17 17 17 17 16 16 16 16 15 15 15 15
25 25 26 24 27 28 26 26 25 28 27 26 23 21 20 19 19 20 21 21 21 21 21 20 19 19 19 20 20 20 19 19 19 18 18 18 17 17 16 16 15 15 15 14 14 14 14 13 14
27 26 24 25 26 27 25 24 25 24 22 21 20 20 19 19 19 19 19 20 20 20 19 19 19 18 19 19 19 19 19 19 19 18 18 17 17 16 15 15 14 14 14 13 13 13 12 12 12
27 26 24 25 26 25 25 25 23 23 22 21 20 19 19 18 18 18 18 19 19 19 19 18 19 18 18 18 18 18 18 18 18 16 16 16 15 14 14 13 13 13 12 12 12 11 11 11 10
24 23 23 24 24 25 25 24 23 23 23 23 21 19 19 18 17 17 17 18 19 19 19 18 18 18 18 17 17 18 18 17 16 15 14 14 14 13 12 12 12 11 11 11 10 10 10 9 8
23 24 24 24 23 21 24 20 22 22 22 21 20 18 18 18 17 17 17 17 18 18 18 18 18 18 17 17 16 16 15 15 14 14 14 13 13 12 11 10 10 10 10 10 9 8 8 8 6
24 25 24 24 22 22 22 21 21 22 21 20 19 18 17 17 16 16 17 18 18 17 17 18 18 17 17 16 16 15 15 14 14 13 13 12 11 11 10 10 10 9 8 7 7 7 6 6 6
25 24 23 22 21 18 21 22 20 21 21 20 19 19 18 17 17 18 18 18 18 18 18 17 17 17 16 15 15 14 14 13 13 12 11 11 10 9 9 9 8 7 7 7 6 6 5 5 4
23 21 18 19 17 18 21 21 20 20 22 21 19 18 17 17 16 16 17 17 17 17 17 17 16 16 15 15 14 13 12 12 12 11 10 10 9 8 8 7 7 6 6 5 5 5 5 4 4
22 23 15 19 16 18 21 20 20 20 20 20 19 17 18 17 18 16 18 18 18 17 17 17 16 16 14 13 13 12 12 11 11 10 10 9 9 8 7 7 6 5 4 4 4 4 3 3 2
22 19 23 20 17 15 19 20 20 20 20 21 20 20 18 17 18 16 17 18 18 18 17 16 15 14 13 12 12 11 11 10 10 10 9 8 7 7 6 5 4 4 4 3 3 3 3 3 3
23 23 18 16 17 18 19 20 19 20 20 20 20 19 19 19 19 17 17 17 17 16 16 15 14 13 12 11 11 10 10 10 9 8 8 7 6 6 5 5 4 5 4 4 3 3 3 3 3
20 21 20 20 16 14 14 17 20 19 19 19 19 19 18 17 17 16 16 16 16 16 15 14 13 12 11 11 10 10 9 9 8 7 7 6 6 5 5 5 4 4 4 4 4 4 4 4 4
23 22 20 13 17 15 12 15 19 17 17 18 18 19 18 18 17 15 16 16 15 15 14 12 12 11 11 10 10 10 9 8 8 7 6 5 5 5 4 5 4 4 4 4 4 4 3 3 2
Height
784 784 787 790 812 809 816 794 773 779 786 772 769 780 800 799 810 835 822 821 823 828 830 830 832 834 835 836 838 839 841 843 844 845 846 847 848 847 847 848 848 848 847 848 849 849 849 851 849
785 784 787 792 816 823 815 785 789 781 777 771 776 787 796 816 805 815 822 823 824 827 830 831 833 834 837 838 840 841 843 843 844 846 847 848 849 849 850 850 849 848 849 850 849 850 850 849 848
786 785 794 802 812 820 813 788 785 774 767 772 784 785 797 814 810 814 821 823 824 828 831 833 835 836 838 839 840 842 844 844 845 846 847 847 849 850 850 851 850 849 850 849 849 850 849 849 848
786 787 791 809 809 790 789 785 776 775 772 774 781 806 805 810 811 817 821 822 826 830 833 835 835 837 839 841 842 842 843 844 846 846 847 848 850 849 850 851 851 851 850 851 850 850 849 848 848
787 790 809 808 792 782 776 772 773 780 784 787 786 815 818 814 814 818 821 823 826 832 835 837 837 839 841 842 842 843 844 845 846 846 848 850 851 853 851 852 852 852 851 852 851 851 849 848 847
795 794 817 820 797 782 776 772 770 779 781 791 799 809 819 815 818 820 822 826 830 832 836 837 839 841 843 842 843 844 845 844 846 848 849 851 850 854 851 854 853 853 853 853 852 851 850 849 847
799 809 817 809 795 788 779 770 783 786 789 795 796 814 817 816 819 821 823 827 831 834 836 839 842 843 843 843 844 844 845 846 848 849 850 852 851 853 853 854 853 853 852 853 851 851 850 848 847
789 799 806 800 799 801 777 779 782 785 792 785 789 814 824 816 819 821 824 827 830 833 836 839 841 842 843 843 844 845 845 847 849 849 851 852 851 852 853 854 853 853 852 852 851 851 849 848 847
781 810 808 799 794 794 775 786 781 782 790 790 789 801 809 814 819 822 825 828 830 834 836 840 841 843 843 842 843 845 846 848 848 850 850 851 850 852 852 852 852 852 852 851 850 849 848 847 847
786 803 792 774 782 789 784 786 786 795 798 804 805 808 812 815 818 821 824 827 831 834 836 840 840 840 842 843 843 844 845 847 847 850 850 849 850 850 851 852 852 851 850 850 849 848 847 846 845
773 792 778 778 775 776 788 790 784 798 809 801 809 811 812 815 818 821 823 825 827 830 835 838 839 840 841 843 843 843 846 847 846 849 849 849 850 851 851 851 851 850 850 849 848 847 846 845 844
784 777 777 776 774 778 789 785 788 792 796 792 798 803 809 815 817 819 820 821 824 828 833 836 837 841 842 844 844 844 846 845 846 849 848 848 850 850 849 850 850 850 849 848 847 847 846 844 843
782 781 777 774 777 780 782 786 790 793 788 790 796 802 807 809 812 814 815 819 822 826 830 832 834 839 842 842 843 842 846 845 845 846 846 846 847 848 848 849 849 848 848 847 846 846 845 843 841
774 780 783 779 781 782 789 788 786 793 786 794 795 800 802 803 806 809 811 816 821 824 827 829 831 834 837 839 841 842 843 843 844 844 844 844 845 847 847 846 847 846 846 846 845 843 842 840 838
773 789 786 786 785 789 785 799 797 789 787 793 794 797 798 798 801 806 810 814 818 819 823 824 826 827 830 833 836 839 841 842 843 843 842 842 844 844 844 844 844 844 843 842 841 840 838 836 834
783 790 810 789 787 786 790 816 793 786 788 794 796 793 796 797 799 802 807 810 813 816 818 822 826 829 835 837 840 835 839 841 842 842 841 841 842 843 843 843 843 842 841 839 836 835 834 832 830
791 813 806 797 782 786 791 803 792 787 789 792 794 796 795 801 805 807 808 812 815 819 820 826 828 830 837 843 842 835 838 840 840 840 840 839 840 841 841 840 840 840 839 838 836 833 831 829 826
808 805 797 807 789 785 795 802 793 786 788 794 799 805 811 813 818 816 816 817 818 819 822 828 830 833 836 836 835 837 838 840 840 840 839 839 839 839 838 837 837 837 836 834 832 829 828 827 824
786 792 801 798 789 792 799 806 800 794 799 808 811 814 817 819 822 822 821 820 821 825 827 829 830 835 835 836 837 838 839 840 840 840 839 839 838 837 836 836 835 834 834 832 830 828 826 824 822
786 795 806 798 789 794 801 806 802 798 802 807 813 818 820 823 824 825 825 826 828 831 833 832 832 835 837 837 838 838 839 839 839 839 839 838 838 837 836 835 833 832 832 831 830 828 825 823 823
800 807 808 808 799 794 801 816 811 805 803 804 811 816 821 825 829 831 832 833 833 834 835 835 837 839 840 840 839 839 839 839 839 839 839 839 837 836 834 832 831 831 830 829 828 826 823 820 820
811 799 802 807 817 835 805 847 819 810 813 813 817 822 824 827 830 834 837 838 838 839 839 841 842 841 841 841 842 842 842 842 842 841 839 837 835 833 832 832 831 830 828 827 825 823 822 820 819
809 798 804 806 818 821 818 830 821 809 822 822 823 824 827 829 830 835 837 839 841 842 844 844 844 844 843 843 842 842 842 842 841 840 838 837 835 833 832 831 830 830 828 826 823 821 820 818 818
794 803 805 808 820 851 823 823 830 818 817 821 820 822 826 830 832 834 837 840 841 843 843 844 845 845 845 845 844 844 843 842 840 838 836 834 833 832 831 830 829 828 826 824 821 819 817 816 815
803 818 849 846 858 852 816 826 837 816 809 812 821 826 828 831 834 835 837 840 841 842 843 844 844 844 844 843 842 843 843 841 839 838 836 834 831 829 828 827 826 825 824 822 820 818 816 815 812
811 814 863 854 871 854 819 840 841 822 818 822 826 829 829 831 832 835 836 836 838 839 840 841 842 843 843 843 842 842 842 840 838 835 833 831 829 826 825 824 824 823 821 819 818 816 813 811 809
816 833 813 838 848 863 842 835 828 823 825 823 828 828 832 832 831 833 834 833 834 835 837 838 839 840 840 840 839 837 838 836 835 833 830 828 828 826 825 823 821 820 819 817 815 814 812 810 808
812 811 844 849 868 860 848 839 843 832 829 824 827 831 832 833 831 831 833 834 836 836 837 837 838 838 839 838 837 835 835 834 832 831 829 828 827 825 823 822 820 819 818 815 813 811 809 807 805
827 828 828 833 856 875 884 859 826 830 832 832 831 832 834 833 831 832 834 835 836 837 837 837 838 838 837 837 836 834 833 833 831 829 828 827 826 824 822 820 818 817 815 813 811 809 806 804 802
814 823 829 873 859 866 881 869 828 832 831 832 833 831 830 830 831 834 835 837 839 839 839 839 837 836 836 835 833 833 833 831 829 827 826 825 824 823 820 818 817 815 813 811 808 805 803 801 799
Wind_Speed
12 8 8 4 2 3 4 3 9 10 9 17 18 15 17 8 5 8 23 26 27 23 21 20 18 17 17 17 17 17 16 15 13 12 11 10 9 9 9 8 7 7 8 7 7 7 8 8 7
10 8 0 2 3 2 3 10 13 9 10 21 19 19 20 18 14 13 17 31 25 23 22 20 18 18 17 16 16 15 14 14 13 11 10 10 9 8 8 7 7 7 7 6 7 9 9 9 9
8 4 2 3 3 3 5 6 6 4 7 10 7 11 7 4 5 10 33 31 26 24 21 20 19 19 17 17 15 14 13 12 11 10 9 8 7 7 7 6 6 5 4 4 6 7 8 8 8
6 3 4 1 9 4 9 8 7 6 12 18 13 10 7 14 9 28 32 27 24 24 22 20 20 18 17 15 14 13 12 11 10 9 7 7 6 6 6 7 7 7 7 5 5 6 6 7 8
1 1 2 3 9 5 6 9 6 7 9 17 17 9 8 22 29 27 29 22 23 23 21 20 19 18 16 15 13 12 11 10 9 8 7 7 7 7 8 8 8 7 7 6 6 7 8 8 9
3 2 3 1 3 7 6 6 6 11 12 20 20 15 6 25 24 27 26 22 22 24 21 20 17 16 15 14 13 12 11 11 11 10 10 9 10 9 9 8 9 8 7 7 7 7 8 8 9
4 2 5 7 3 9 5 9 12 13 10 6 14 9 7 17 24 25 27 23 21 21 20 17 16 15 14 13 13 13 13 12 11 10 10 12 11 11 11 10 10 8 7 7 7 8 8 9 9
3 1 5 6 8 3 3 9 8 12 5 7 11 6 9 14 23 28 27 24 20 19 17 17 14 13 12 14 12 13 12 13 13 12 12 11 10 8 8 8 7 7 8 8 7 9 11 10 9
4 3 10 17 8 5 3 7 6 6 9 8 5 13 19 27 24 25 27 26 24 22 19 16 14 11 11 13 12 11 12 12 12 11 9 8 4 4 7 6 3 5 6 7 6 8 11 9 9
6 4 5 6 9 7 4 10 5 6 8 11 12 19 26 27 25 22 21 21 19 23 22 17 16 10 8 8 6 8 10 10 10 8 4 6 3 1 5 5 4 5 7 6 3 8 9 6 7
3 5 5 8 8 11 8 6 7 8 7 15 19 14 13 18 20 21 21 24 26 21 22 19 14 9 5 6 5 8 10 10 9 9 5 7 0 3 1 2 3 6 7 6 7 8 9 9 12
7 9 8 5 9 8 8 6 5 9 8 12 18 20 14 10 13 19 21 27 28 25 26 20 14 11 6 6 9 9 11 11 11 10 9 7 3 5 3 4 5 6 8 9 10 8 8 10 13
9 5 7 5 10 7 6 4 4 8 10 13 18 17 15 14 21 25 25 28 29 27 28 22 16 11 8 8 5 6 7 10 8 8 7 3 6 1 2 2 3 5 6 9 6 9 13 16 17
6 8 8 3 6 2 1 2 4 4 9 10 14 15 14 15 21 24 19 26 31 31 30 25 18 16 12 9 6 5 7 5 6 8 7 4 5 2 2 2 3 6 9 10 12 15 17 18 18
8 7 6 5 7 4 3 2 6 8 9 10 11 11 11 15 23 23 17 25 28 29 29 27 23 23 20 15 8 6 10 7 5 7 5 3 4 5 4 4 5 8 10 14 16 19 19 21 23
5 6 5 6 8 6 7 6 7 9 9 8 9 8 9 10 19 27 21 23 22 26 29 29 27 20 14 12 13 8 8 6 6 6 6 6 6 4 4 4 8 11 15 18 19 20 25 26 26
2 4 6 4 9 5 4 6 7 7 7 3 5 7 5 7 16 11 15 23 23 20 20 15 19 10 9 11 8 5 5 5 6 6 7 9 8 5 5 9 12 13 17 19 20 20 21 22 25
4 3 6 8 3 3 4 3 5 5 4 4 7 14 15 17 15 25 30 30 30 28 23 24 21 17 10 9 5 0 3 2 4 4 5 2 2 6 7 8 11 14 17 20 20 22 23 24 27
3 4 9 5 5 3 4 4 6 6 10 17 15 15 15 15 18 27 29 31 30 25 23 19 23 18 15 13 9 7 9 6 6 6 3 5 3 2 7 12 13 15 16 19 22 21 22 26 27
6 6 5 4 5 4 3 1 7 9 7 12 15 13 14 11 13 20 27 27 26 23 21 19 15 13 15 13 11 9 10 8 8 11 13 12 10 11 11 12 14 15 15 16 16 20 24 24 18
9 6 6 4 6 3 3 2 6 6 12 13 10 10 11 13 12 11 19 22 23 21 19 17 13 11 9 10 8 5 6 9 14 16 15 14 12 11 13 14 16 17 18 18 20 22 17 14 13
5 7 6 6 5 3 3 3 4 8 8 11 11 9 9 12 11 13 17 17 16 15 15 11 7 5 7 8 7 8 7 8 12 14 15 13 11 14 16 17 18 20 20 19 15 9 11 13 13
2 3 4 4 4 3 8 1 5 12 11 10 9 11 9 9 10 9 16 15 12 10 9 7 10 7 4 6 6 6 4 6 8 10 11 11 14 15 18 20 24 21 13 10 13 15 14 13 11
5 4 6 5 3 2 6 4 2 9 12 9 9 10 10 9 9 13 17 15 13 10 8 5 8 13 16 15 14 11 10 10 9 11 9 11 13 15 16 16 13 13 16 19 18 14 13 14 14
3 5 4 4 4 4 4 8 6 11 13 14 13 9 9 8 7 7 13 13 10 10 10 11 12 13 12 11 10 10 12 12 13 13 10 12 13 11 11 13 15 20 19 15 13 14 17 17 18
4 3 4 0 1 4 7 4 1 10 12 9 8 8 8 8 5 6 11 13 13 10 6 4 5 5 8 10 13 13 14 15 12 12 16 11 7 9 10 13 17 16 13 14 15 15 13 14 12
6 4 2 3 5 3 1 4 5 9 7 11 10 8 7 8 6 8 13 12 9 5 4 5 7 7 9 9 10 13 13 14 16 14 7 7 9 10 16 15 11 13 19 15 13 13 16 15 14
4 2 5 3 1 2 4 3 3 3 7 7 6 6 4 1 3 5 6 8 10 9 7 6 6 10 10 11 13 15 17 17 12 10 12 13 15 14 13 14 12 17 16 15 15 15 15 17 16
4 3 4 2 5 4 1 3 4 8 10 7 8 6 5 4 4 5 9 13 9 8 8 10 11 10 11 14 16 15 15 12 9 10 12 13 16 13 14 16 15 16 16 16 17 18 19 17 16
1 3 4 4 4 1 4 5 7 8 10 7 4 6 4 4 4 8 11 12 13 13 8 9 9 10 11 13 14 14 16 10 11 10 12 16 19 17 17 16 16 17 17 17 18 15 13 5 6
Wind_Direction
314 308 334 292 43 89 297 262 84 45 45 67 71 76 82 55 70 131 129 130 129 123 123 121 117 110 103 99 97 97 100 103 104 102 99 89 82 77 71 64 58 50 44 30 19 18 4 351 354
312 324 221 271 99 76 331 79 74 113 121 83 84 89 69 74 82 113 120 122 121 123 123 119 117 112 108 104 100 101 104 104 103 102 93 84 74 66 61 56 46 37 26 9 357 354 359 359 355
309 333 86 140 188 183 136 84 112 88 104 105 83 60 77 92 61 100 121 126 119 121 120 118 116 111 109 108 107 107 106 103 100 96 93 87 75 65 51 38 29 24 15 357 343 353 353 348 343
9 24 339 65 275 241 130 140 124 63 61 81 103 68 38 115 105 115 125 123 118 122 122 119 116 115 111 108 108 107 105 104 104 97 91 81 66 59 56 45 37 31 31 18 359 356 354 348 345
54 323 347 301 87 48 118 142 121 96 87 99 92 89 86 93 121 124 120 114 121 123 122 121 116 110 109 108 106 103 102 101 99 96 90 82 75 73 69 61 52 45 41 35 28 18 15 11 4
9 84 358 247 190 108 62 57 100 97 91 103 101 107 115 123 123 128 129 120 129 128 125 119 115 112 108 102 100 101 102 102 101 101 97 90 78 67 61 57 54 51 47 37 30 20 12 6 1
161 69 250 272 159 80 76 49 60 84 72 68 139 115 134 120 129 129 126 120 124 128 123 120 115 109 99 95 100 100 96 92 93 96 97 92 84 71 73 55 39 34 34 22 13 7 0 353 348
156 135 288 293 104 94 68 69 84 79 58 138 146 133 143 147 133 131 130 133 131 134 131 130 119 119 110 92 97 94 94 96 95 102 103 110 97 80 58 32 43 38 39 18 18 17 11 348 339
146 216 257 264 120 159 81 79 49 74 67 51 54 122 141 141 139 134 137 145 151 151 150 135 137 132 133 106 98 106 109 111 107 98 99 105 119 100 10 5 18 38 19 21 40 24 15 12 2
160 157 222 93 119 132 105 99 121 98 90 82 85 108 134 140 142 143 148 149 141 145 154 146 143 137 149 134 117 136 141 134 119 105 70 118 117 198 342 315 321 21 350 333 351 2 350 330 322
3 108 47 46 130 111 112 128 166 139 142 145 140 139 137 146 148 160 169 162 155 161 148 146 140 136 134 183 192 178 172 156 145 142 131 118 19 239 69 6 30 6 354 358 340 335 327 309 308
66 71 82 26 61 85 136 170 81 111 186 154 145 148 145 150 161 186 187 175 168 170 156 153 147 151 152 111 105 152 194 182 169 176 150 159 123 123 78 41 360 347 335 333 319 310 327 317 304
94 92 78 66 67 72 99 145 129 112 100 142 140 146 156 165 181 200 203 187 175 163 159 161 153 159 162 135 145 139 129 156 143 162 174 223 195 172 244 291 307 309 308 309 305 298 300 301 293
131 119 124 152 83 81 133 164 82 190 122 130 141 162 172 176 183 199 212 176 176 162 163 163 167 172 168 170 164 172 169 152 161 188 205 211 173 224 201 264 307 308 315 314 311 311 308 301 294
131 115 140 155 165 171 194 330 162 192 149 152 158 171 178 184 181 186 189 159 165 170 170 174 178 177 175 168 179 162 180 195 171 202 214 225 206 214 247 280 315 325 321 314 309 307 302 297 297
171 123 143 227 176 201 122 250 230 167 140 159 188 190 177 196 178 179 165 162 169 165 176 180 176 169 170 167 180 167 171 168 212 222 206 254 222 263 273 280 289 295 294 291 291 297 300 297 292
295 219 160 172 176 161 140 318 129 138 130 189 242 205 178 62 41 77 120 101 101 109 112 142 169 182 156 191 173 161 188 266 238 239 193 176 161 200 250 286 306 315 314 311 313 316 320 322 316
296 246 168 153 168 79 322 146 107 138 156 227 35 73 71 69 54 60 77 82 84 82 87 90 106 113 108 131 98 359 229 320 320 137 144 155 262 272 281 292 313 313 315 319 322 326 324 325 323
331 15 84 90 74 78 319 111 103 35 69 79 81 91 84 76 70 65 67 75 77 73 77 79 77 77 77 71 71 37 37 26 11 32 359 6 346 334 322 334 332 332 328 323 322 327 327 325 322
0 31 31 96 99 85 329 67 113 81 87 110 109 99 97 93 75 64 68 72 74 77 76 67 61 55 58 58 57 53 25 8 5 34 24 17 12 10 15 16 8 3 352 346 339 330 327 321 332
22 80 30 31 347 334 306 108 111 97 90 85 90 105 100 102 93 79 71 71 71 71 72 72 65 57 45 40 32 3 334 352 360 4 15 18 19 29 22 13 5 356 345 340 334 330 327 334 355
41 21 14 343 12 255 141 239 187 145 113 95 84 83 97 103 101 102 94 85 75 66 69 70 68 23 14 11 7 354 353 357 351 352 352 356 3 7 6 360 352 349 339 327 330 350 355 354 3
145 347 273 267 279 307 298 141 226 141 123 114 108 99 100 112 115 114 117 114 108 98 82 54 26 56 42 18 7 355 355 344 335 346 2 354 350 351 348 341 335 332 334 348 345 345 343 349 358
275 283 262 219 179 14 305 202 97 162 148 133 124 117 113 110 119 141 142 140 142 137 119 63 19 32 44 40 31 27 25 19 14 357 359 357 350 349 340 339 339 341 342 340 336 337 343 343 337
5 30 355 28 8 219 322 69 353 357 146 135 125 120 121 119 117 133 131 145 128 82 78 61 49 31 13 16 20 26 14 5 358 348 357 353 348 349 355 345 348 342 335 336 338 334 326 319 323
304 79 130 77 44 294 323 65 111 68 62 86 100 121 133 131 147 131 126 116 108 94 62 11 338 10 55 46 41 31 17 5 5 354 335 339 355 340 329 330 329 337 334 329 327 323 320 319 324
322 44 159 96 9 43 225 94 58 110 108 117 149 170 162 161 153 140 137 140 140 122 94 103 91 63 50 43 24 19 7 357 347 342 359 12 1 344 329 334 338 341 333 335 332 329 331 327 320
84 223 49 4 91 304 338 88 208 151 168 181 159 130 71 55 112 126 119 106 95 88 77 86 76 67 51 28 13 4 354 349 345 354 354 343 341 342 343 333 314 320 322 322 316 307 302 295 295
9 23 15 70 120 169 16 282 176 65 56 37 81 97 158 62 21 86 78 92 76 40 40 80 69 44 19 6 356 353 348 337 333 349 349 341 334 326 320 321 325 318 315 314 304 310 306 303 305
349 67 77 108 296 63 136 276 83 90 61 32 79 78 68 110 45 84 73 61 55 34 53 62 43 23 7 356 346 335 331 307 308 336 335 333 325 321 316 314 312 319 317 316 316 318 328 329 335